[[{"header":{"parameterUnit":"m.s-1","parameterCategory":1,"la1":30.2991,"la2":30.254,"lo1":-89.0895,"lo2":-89.0444,"dy":0.0017,"dx":0.0017,"nx":28,"ny":28,"refTime":"2024-05-11T21:00:00:Z","depth":0,"parameterNumber":2,"parameterNumberName":"U-component_of_WINDS"},"data":[0,0,0,0,0,0,0,0,0,0,0,0,0,0,0,0,0,0,0,0,0,0,0,0,0,0,0,0,0,0,0,0,0,0,0,0,0,0,0,0,0,0,0,0,0,0,0,0,0,0,0,0,0,0,0,0,0,0,-5.9469,-5.9469,0,-5.9448,-5.9448,-5.9448,-5.9361,-5.9359,-5.9357,-5.9355,-5.9335,-5.9336,-5.9338,0,0,0,0,0,0,0,0,0,0,0,0,0,-5.9436,-5.9437,-5.9469,-5.9469,-5.9468,-5.9448,-5.9448,-5.9448,-5.9361,-5.9359,-5.9356,-5.9354,-5.9335,-5.9336,-5.9338,0,0,0,0,0,0,0,0,0,0,0,0,0,-5.9436,-5.9437,-5.9469,-5.9423,-5.9418,-5.9448,-5.9448,-5.9448,-5.9362,-5.9359,-5.9356,-5.9353,-5.9334,-5.9336,-5.9338,-5.9411,0,0,-5.9344,-5.9345,0,0,0,0,0,0,0,0,-5.9436,-5.9438,-5.943,-5.9426,-5.9421,-5.9404,-5.9429,-5.9435,-5.9362,-5.9383,-5.9355,-5.9351,-5.9361,-5.936,-5.9363,-5.941,-5.9409,-5.9344,-5.9346,-5.9347,-5.9347,0,0,0,0,0,0,0,-5.9436,-5.9438,-5.9461,-5.943,-5.9425,-5.9404,-5.94,-5.943,-5.9389,-5.9381,-5.9375,-5.9373,-5.9358,-5.9361,-5.9362,-5.9409,-5.9344,-5.9346,-5.9347,-5.9348,-5.9516,-5.9519,0,0,0,0,0,0,-5.9443,-5.9439,-5.9461,-5.946,-5.9421,-5.9407,-5.9403,-5.9413,-5.9389,-5.9382,-5.9376,-5.9369,-5.9359,-5.936,-5.9361,-5.9444,-5.9347,-5.9348,-5.935,-5.9512,-5.9516,-5.952,0,0,0,0,0,0,-5.9442,-5.9446,-5.9462,-5.9448,-5.9448,-5.9411,-5.9422,-5.9414,-5.9417,-5.9385,-5.9377,-5.9387,-5.9357,-5.9358,-5.9399,-5.9442,-5.9349,-5.9351,-5.9509,-5.9514,-5.9518,-5.9612,0,0,0,0,0,0,-5.9442,-5.9446,-5.9473,-5.9449,-5.9449,-5.9501,-5.9425,-5.9416,-5.9421,-5.9412,-5.9393,-5.9387,-5.9355,-5.9397,-5.9401,-5.9443,-5.9353,-5.9504,-5.9511,-5.9516,-5.9605,-5.962,-5.9632,0,0,0,0,0,-5.9441,-5.95,-5.9475,-5.9478,-5.9482,-5.9503,-5.9503,-5.9464,-5.9425,-5.9451,-5.9431,-5.9388,-5.9437,-5.9402,-5.9406,-5.9449,-5.9502,-5.9509,-5.9516,-5.9599,-5.9617,-5.9632,0,0,0,0,0,0,-5.9531,-5.9496,-5.9467,-5.9521,-5.9516,-5.9488,-5.9521,-5.9485,-5.9491,-5.9482,-5.9434,-5.9431,-5.9479,-5.9469,-5.9429,-5.9519,-5.9462,-5.9471,-5.9524,-5.954,-5.9554,-5.9554,-5.9354,0,0,0,0,0,-5.9557,-5.9576,-5.9546,-5.9596,-5.9595,-5.9559,-5.9567,-5.9537,-5.953,-5.9527,-5.9509,-5.9505,-5.9519,-5.9529,-5.9541,-5.9604,-5.9598,-5.9636,-5.965,-5.9661,-5.9668,-5.97,-5.9717,-5.9544,-5.9543,-5.9543,0,0,-5.9611,-5.9594,-5.961,-5.9614,-5.9606,-5.9628,-5.9557,-5.9583,-5.9599,-5.9531,-5.9568,-5.9556,-5.9547,-5.96,-5.9622,-5.9592,-5.9715,-5.967,-5.968,-5.9681,-5.971,-5.9726,-5.9741,-5.9548,-5.9548,-5.9547,0,0,-5.9719,-5.971,-5.975,-5.9744,-5.9733,-5.9709,-5.9719,-5.9698,-5.9687,-5.9723,-5.9673,-5.9692,-5.9718,-5.9713,-5.9715,-5.9824,-5.9784,-5.9829,-5.9899,-5.9931,-5.9945,-5.9957,-5.9995,-6.0009,-5.9837,-5.9838,-5.9838,0,-5.9788,-5.9818,-5.9776,-5.9805,-5.9808,-5.9748,-5.9789,-5.9785,-5.9779,-5.9783,-5.9751,-5.9782,-5.9772,-5.9822,-5.9849,-5.9853,-5.9862,-5.983,-5.9946,-5.9958,-5.9968,-6.0004,-6.0018,-5.9843,-5.9842,-5.9842,-5.9841,0,-5.9902,-5.9924,-5.9958,-5.9953,-5.996,-5.9995,-5.9959,-5.9972,-5.9943,-5.9922,-5.9961,-5.9947,-5.9955,-5.9965,-5.9937,-6.0012,-5.9993,-5.9955,-5.9896,-5.9991,-6.0023,-6.0037,-5.9851,-5.9849,-5.9847,-5.9846,0,0,-6.0064,-6.0037,-6.005,-6.0047,-6.0031,-6.0048,-6.0081,-6.0088,-6.0099,-6.0098,-6.0124,-6.0148,-6.0112,-6.0114,-6.0085,-6.0113,-6.02,-6.0071,-6.007,-6.0094,-6.028,-6.0308,-6.0325,-6.0174,-6.0177,-6.0179,-6.0281,0,-6.0167,-6.022,-6.0184,-6.0243,-6.0263,-6.0207,-6.0236,-6.023,-6.0213,-6.0227,-6.0208,-6.0225,-6.0177,-6.0177,-6.0203,-6.0184,-6.0236,-6.0176,-6.0198,-6.0199,-6.0199,-6.0342,-6.0371,-6.0468,-6.0293,-6.0295,-6.0297,0,-6.0293,-6.0297,-6.0358,-6.0339,-6.0346,-6.0372,-6.0375,-6.039,-6.0383,-6.0368,-6.0371,-6.0335,-6.0367,-6.0311,-6.0354,-6.0314,-6.0321,-6.0313,-6.0316,-6.0314,-6.0252,-6.0343,-6.0498,-6.0512,-6.0317,-6.0315,-6.0314,0,-6.0404,-6.0425,-6.0464,-6.0463,-6.0442,-6.0462,-6.0454,-6.0444,-6.0451,-6.0454,-6.0458,-6.0466,-6.047,-6.0478,-6.0445,-6.0408,-6.0492,-6.0434,-6.048,-6.0481,-6.0499,-6.0498,-6.0655,-6.0507,-6.0507,-6.0506,-6.0506,0,-6.0521,-6.0561,-6.0513,-6.0537,-6.058,-6.0539,-6.0582,-6.0569,-6.056,-6.0581,-6.0535,-6.0555,-6.0512,-6.0528,-6.0504,-6.0542,-6.0545,-6.0534,-6.0526,-6.0537,-6.0538,-6.0539,-6.0531,-6.051,-6.0509,-6.0509,-6.0508,0,-6.0651,-6.0621,-6.066,-6.0637,-6.0632,-6.0665,-6.0645,-6.0667,-6.0647,-6.0674,-6.0678,-6.0647,-6.0664,-6.0633,-6.0646,-6.0629,-6.0683,-6.0666,-6.0685,-6.0679,-6.0727,-6.0723,-6.089,-6.0909,-6.075,-6.0752,-6.0753,0,-6.0727,-6.0756,-6.0736,-6.0746,-6.0741,-6.0759,-6.0765,-6.0727,-6.0735,-6.073,-6.0752,-6.0765,-6.0773,-6.0803,-6.0782,-6.0792,-6.0774,-6.0832,-6.0775,-6.0785,-6.0773,-6.0771,-6.0773,-6.0843,-6.0845,-6.0847,-6.0848,0,-6.0864,-6.0848,-6.0859,-6.0865,-6.0874,-6.0877,-6.0877,-6.0888,-6.0847,-6.086,-6.0876,-6.0883,-6.0897,-6.091,-6.0915,-6.0908,-6.0871,-6.0866,-6.0877,-6.0887,-6.0896,-6.0891,-6.0715,-6.0862,-6.0861,-6.086,-6.0859,-6.0858,-6.0968,-6.0991,-6.098,-6.0994,-6.099,-6.0991,-6.101,-6.0993,-6.1006,-6.1013,-6.099,-6.1012,-6.1005,-6.1008,-6.1005,-6.1022,-6.0996,-6.1012,-6.1016,-6.102,-6.1027,-6.0896,-6.1023,-6.1022,-6.1022,-6.1022,-6.1021,0,-6.1101,-6.1092,-6.1105,-6.1106,-6.1118,-6.1083,-6.1081,-6.1093,-6.1112,-6.1108,-6.1117,-6.1137,-6.115,-6.1131,-6.114,-6.1158,-6.1141,-6.1162,-6.1159,-6.1158,-6.105,-6.1039,-6.1175,-6.1175,-6.1175,-6.1175,-6.1175,-6.1175,-6.1172,-6.1208,-6.1191,-6.1226,-6.1217,-6.1237,-6.1239,-6.124,-6.1237,-6.126,-6.1271,-6.1258,-6.1248,-6.1257,-6.1268,-6.1262,-6.1267,-6.1293,-6.1281,-6.118,-6.1165,-6.1151,-6.114,-6.1295,-6.1295,-6.1386,-6.1387,-6.1388]},{"header":{"parameterUnit":"m.s-1","parameterCategory":1,"la1":30.2991,"la2":30.254,"lo1":-89.0895,"lo2":-89.0444,"dy":0.0017,"dx":0.0017,"nx":28,"ny":28,"refTime":"2024-05-11T21:00:00:Z","depth":0,"parameterNumber":3,"parameterNumberName":"V-component_of_WINDS"},"data":[0,0,0,0,0,0,0,0,0,0,0,0,0,0,0,0,0,0,0,0,0,0,0,0,0,0,0,0,0,0,0,0,0,0,0,0,0,0,0,0,0,0,0,0,0,0,0,0,0,0,0,0,0,0,0,0,0,0,0.9144,0.9145,0,0.9146,0.9146,0.9146,0.9179,0.9179,0.918,0.9181,0.918,0.9179,0.9178,0,0,0,0,0,0,0,0,0,0,0,0,0,0.9167,0.9167,0.9144,0.9145,0.9145,0.9146,0.9146,0.9146,0.9178,0.9179,0.918,0.9181,0.918,0.9179,0.9178,0,0,0,0,0,0,0,0,0,0,0,0,0,0.9162,0.9166,0.9144,0.9161,0.9162,0.9146,0.9146,0.9146,0.9178,0.9179,0.9181,0.9182,0.9181,0.9179,0.9178,0.9146,0,0,0.9175,0.9174,0,0,0,0,0,0,0,0,0.9162,0.9161,0.9158,0.916,0.9161,0.9164,0.9154,0.9146,0.9178,0.9172,0.9181,0.9182,0.9173,0.9173,0.917,0.9146,0.9146,0.9174,0.9174,0.9173,0.9173,0,0,0,0,0,0,0,0.9162,0.9161,0.9145,0.9158,0.916,0.9168,0.9168,0.9153,0.9166,0.9173,0.9175,0.9175,0.9174,0.9171,0.9171,0.9146,0.9174,0.9173,0.9173,0.9172,0.9096,0.9095,0,0,0,0,0,0,0.9161,0.9161,0.9145,0.9145,0.9165,0.9166,0.9167,0.9162,0.9166,0.9168,0.9174,0.9176,0.9173,0.9172,0.9171,0.9133,0.9173,0.9172,0.9171,0.9097,0.9096,0.9094,0,0,0,0,0,0,0.9161,0.9159,0.9145,0.9154,0.9153,0.9165,0.9158,0.9161,0.9158,0.9167,0.9169,0.9169,0.9174,0.9172,0.9152,0.9134,0.9172,0.917,0.9099,0.9097,0.9095,0.9059,0,0,0,0,0,0,0.9162,0.9159,0.9147,0.9153,0.9152,0.9127,0.9157,0.916,0.9156,0.916,0.9162,0.9164,0.9175,0.9154,0.9151,0.9133,0.9169,0.9101,0.9098,0.9096,0.9061,0.9056,0.9051,0,0,0,0,0,0.9162,0.9136,0.9146,0.9144,0.9137,0.9126,0.9125,0.9138,0.9155,0.9142,0.9149,0.9164,0.9137,0.9152,0.9149,0.913,0.9102,0.9099,0.9096,0.9064,0.9057,0.9051,0,0,0,0,0,0,0.9125,0.9137,0.9149,0.9123,0.9124,0.9131,0.9116,0.913,0.9125,0.9128,0.9145,0.9145,0.9122,0.9124,0.9141,0.9099,0.9122,0.9118,0.9099,0.9092,0.9087,0.9086,0.9168,0,0,0,0,0,0.9114,0.9105,0.9115,0.9092,0.9091,0.9104,0.9099,0.911,0.911,0.911,0.9115,0.9114,0.9105,0.9099,0.9091,0.9063,0.9064,0.9048,0.9043,0.9038,0.9035,0.902,0.9014,0.9085,0.9085,0.9085,0,0,0.9091,0.9096,0.9089,0.9084,0.9086,0.9075,0.9103,0.909,0.9082,0.9108,0.9089,0.9093,0.9093,0.9069,0.9058,0.907,0.9016,0.9035,0.9031,0.903,0.9017,0.901,0.9004,0.9083,0.9083,0.9084,0,0,0.9043,0.9046,0.9028,0.9029,0.9032,0.904,0.9036,0.9042,0.9046,0.9028,0.9047,0.9038,0.9023,0.9022,0.902,0.8975,0.8989,0.8972,0.8943,0.8929,0.8923,0.8918,0.8902,0.8896,0.8968,0.8968,0.8968,0,0.9014,0.8999,0.9016,0.9002,0.9,0.9024,0.9005,0.9006,0.9005,0.9003,0.9016,0.8998,0.9,0.8976,0.8966,0.8963,0.8958,0.8971,0.8923,0.8918,0.8914,0.8898,0.8892,0.8966,0.8966,0.8967,0.8967,0,0.8962,0.8952,0.8936,0.8937,0.8933,0.8916,0.8931,0.8925,0.8937,0.8944,0.8926,0.893,0.8924,0.8919,0.893,0.8897,0.8904,0.892,0.8943,0.8904,0.889,0.8884,0.8963,0.8964,0.8964,0.8965,0,0,0.8889,0.8901,0.8895,0.8896,0.8901,0.8893,0.8879,0.8874,0.8869,0.8868,0.8856,0.8843,0.8859,0.8856,0.8867,0.8855,0.8819,0.8872,0.8872,0.8862,0.8783,0.8771,0.8764,0.8829,0.8828,0.8827,0.8783,0,0.8842,0.8818,0.8834,0.8807,0.8798,0.8822,0.881,0.8812,0.8819,0.8811,0.8819,0.881,0.8831,0.883,0.8819,0.8825,0.8803,0.8829,0.8817,0.8816,0.8815,0.8756,0.8743,0.8701,0.8778,0.8777,0.8776,0,0.8784,0.8783,0.8755,0.8764,0.8761,0.8749,0.8747,0.874,0.8743,0.8749,0.8748,0.8763,0.8749,0.8773,0.8753,0.8771,0.8767,0.877,0.8769,0.8767,0.8793,0.8753,0.8688,0.8682,0.8768,0.8768,0.8769,0,0.8733,0.8724,0.8707,0.8707,0.8717,0.8708,0.8712,0.8717,0.8713,0.8712,0.871,0.8706,0.8703,0.87,0.8714,0.873,0.8693,0.8718,0.8697,0.8697,0.8687,0.8687,0.862,0.8686,0.8686,0.8686,0.8686,0,0.8679,0.8661,0.8684,0.8673,0.8655,0.8674,0.8654,0.866,0.8664,0.8655,0.8676,0.8667,0.8685,0.8678,0.8689,0.8671,0.867,0.8674,0.8677,0.8672,0.8671,0.8669,0.8672,0.8684,0.8685,0.8685,0.8685,0,0.8618,0.8633,0.8616,0.8627,0.863,0.8615,0.8625,0.8616,0.8625,0.8613,0.8611,0.8626,0.8619,0.8632,0.8626,0.8633,0.8609,0.8617,0.8608,0.861,0.8589,0.859,0.8517,0.8509,0.858,0.8579,0.8579,0,0.8582,0.8569,0.858,0.8576,0.8579,0.8572,0.8569,0.8588,0.8584,0.8588,0.8578,0.8573,0.8569,0.8556,0.8566,0.8562,0.8569,0.8544,0.8568,0.8564,0.8568,0.8569,0.8567,0.8538,0.8537,0.8537,0.8536,0,0.8516,0.8525,0.8521,0.852,0.8517,0.8516,0.8518,0.8513,0.8533,0.8528,0.8522,0.8519,0.8514,0.8508,0.8507,0.851,0.8526,0.8529,0.8524,0.8518,0.8513,0.8515,0.8594,0.853,0.853,0.8531,0.8531,0.8531,0.8466,0.8456,0.8463,0.8458,0.8462,0.8463,0.8455,0.8464,0.846,0.8458,0.8469,0.846,0.8465,0.8465,0.8467,0.846,0.8471,0.8463,0.8462,0.8459,0.8456,0.8515,0.8459,0.846,0.846,0.846,0.846,0,0.8402,0.8408,0.8404,0.8406,0.8402,0.8419,0.8422,0.8418,0.841,0.8413,0.841,0.8403,0.8399,0.8409,0.8406,0.8398,0.8405,0.8397,0.8397,0.8397,0.8446,0.8451,0.8391,0.8391,0.8391,0.8391,0.8391,0.8391,0.8368,0.8352,0.8362,0.8348,0.8355,0.8347,0.8347,0.8348,0.8351,0.8343,0.834,0.8347,0.8353,0.8351,0.8348,0.8351,0.8348,0.8337,0.8342,0.8387,0.8394,0.84,0.8405,0.8336,0.8336,0.8294,0.8294,0.8294]}]]